Flag for Switzerland Weather past 2 weeks in Lugano, Switzerland

Now
63 °F

Light rain. Partly sunny.


Feels Like: 63 °F
Forecast: 60 / 77 °F
Wind: 5 mph from North

Location: Lugano Airport

Current Time: Aug 2, 2014 at 10:47:40 AM

Latest Report: Aug 2, 2014 at 10:20 AM


Visibility: 3 mi

Pressure: 29.92 "Hg

Humidity: 100%

Dew point: 63 °F

Location of LuganoLocation

Historic Weather in Lugano — Graph

°F

Lugano temperature yesterday

Maximum temperature yesterday: 79 °F (at 4:50 PM)
Minimum temperature yesterday: 64 °F (at 9:50 AM)
Average temperature yesterday: 70 °F

Past Weeks' High & Low Weather Summary

 TemperatureHumidityPressure
High88 °F (Jul 18, 2:50 PM)100% (Jul 23, 4:20 AM)30.09 "Hg (Jul 23, 4:20 AM)
Low55 °F (Jul 30, 6:20 AM)46% (Jul 19, 1:50 PM)29.68 "Hg (Jul 30, 5:50 AM)
Average70 °F82%29.88 "Hg
* Reported Jul 18 9:20 AM — Aug 2 9:50 AM, Lugano, Weather by CustomWeather, © 2014

Note: Actual official high and low records may vary slightly from our data, if they occured in-between our weather recording intervals... More about our weather records

Advertising

Lugano weather history for previous 24 hours

 ConditionsComfort  
Time TempWeatherWind HumidityBarometerVisibility
9:50 AM
Aug 2
63 °FThunderstorms. Broken clouds.5 mph100%29.92 "Hg3 mi
9:20 AM64 °FRain. Broken clouds.2 mph94%29.92 "Hg3 mi
8:50 AM64 °FRain. Broken clouds.5 mph94%29.89 "Hg4 mi
8:20 AM64 °FLight rain. Broken clouds.5 mph94%29.89 "HgN/A
7:50 AM64 °FSprinkles. Broken clouds.2 mph94%29.89 "Hg4 mi
7:20 AM64 °FThundershowers. Broken clouds.1 mph94%29.89 "Hg3 mi
6:50 AM64 °FThunderstorms. Partly cloudy.2 mph94%29.89 "Hg5 mi
6:20 AM64 °FSprinkles. Partly cloudy.5 mph94%29.86 "Hg6 mi
5:50 AM64 °FLight rain. Passing clouds.3 mph94%29.86 "HgN/A
5:20 AM64 °FThunderstorms. Passing clouds.5 mph94%29.89 "Hg3 mi
4:50 AM68 °FThundershowers. Partly cloudy.13 mph88%29.86 "HgN/A
4:20 AM66 °FThundershowers. Mostly cloudy.1 mph94%29.86 "Hg4 mi
3:50 AM66 °FRain. Fog.1 mph94%29.86 "Hg1 mi
3:20 AM66 °FThundershowers. Partly cloudy.2 mph94%29.86 "HgN/A
2:50 AM66 °FPartly cloudy.2 mph94%29.86 "Hg5 mi
2:20 AM66 °FPassing clouds.3 mph94%29.86 "Hg5 mi
1:50 AM66 °FThundershowers. Partly cloudy.2 mph94%29.86 "Hg4 mi
1:20 AM66 °FThundershowers. Passing clouds.1 mph94%29.86 "Hg4 mi
12:50 AM66 °FThundershowers. Partly cloudy.1 mph94%29.86 "HgN/A
12:20 AM66 °FPartly cloudy.2 mph94%29.86 "Hg4 mi
11:50 PM
Aug 1
66 °FPassing clouds.2 mph94%29.86 "HgN/A
11:20 PM66 °FPassing clouds.5 mph88%29.86 "Hg5 mi
10:50 PM66 °FClear.2 mph88%29.86 "Hg10 mi
10:20 PM68 °FClear.2 mph88%29.86 "Hg10 mi
9:50 PM68 °FSunny.1 mph88%29.86 "Hg10 mi
9:20 PM68 °FSunny.2 mph94%29.83 "Hg10 mi
8:50 PM70 °FSunny.2 mph88%29.83 "Hg10 mi
8:20 PM72 °FMild.1 mph88%29.83 "HgN/A
7:50 PM73 °FPassing clouds.2 mph83%29.83 "HgN/A
7:20 PM75 °FPassing clouds.1 mph78%29.83 "HgN/A
6:50 PM77 °FPassing clouds.2 mph74%29.83 "HgN/A
6:20 PM77 °FPassing clouds.5 mph69%29.83 "HgN/A
5:50 PM77 °FPassing clouds.2 mph69%29.83 "HgN/A
5:20 PM77 °FScattered clouds.3 mph69%29.83 "HgN/A
4:50 PM79 °FScattered showers. Scattered clouds.1 mph65%29.86 "HgN/A
4:20 PM73 °FSprinkles. Broken clouds.5 mph74%29.86 "HgN/A
3:50 PM75 °FScattered showers. Partly sunny.1 mph69%29.86 "HgN/A
3:20 PM75 °FPartly sunny.3 mph74%29.86 "HgN/A
2:50 PM75 °FPartly sunny.2 mph74%29.89 "HgN/A
2:20 PM73 °FPartly sunny.1 mph78%29.89 "HgN/A
1:50 PM72 °FBroken clouds.2 mph73%29.89 "HgN/A
1:20 PM70 °FBroken clouds.2 mph83%29.89 "HgN/A
12:50 PM70 °FBroken clouds.2 mph83%29.89 "HgN/A
12:20 PM68 °FBroken clouds.2 mph88%29.92 "HgN/A
11:50 AM68 °FBroken clouds.5 mph88%29.92 "HgN/A
11:20 AM66 °FSprinkles. Broken clouds.1 mph94%29.92 "HgN/A
10:50 AM66 °FSprinkles. Scattered clouds.1 mph94%29.92 "HgN/A
10:20 AM66 °FSprinkles. Scattered clouds.3 mph88%29.92 "Hg6 mi
Weather by CustomWeather, © 2014

See weather overviewHow to use our weather pages